#timestamp,LO_Frequency,Hit,StdDev 
1522422015.4,286047000.7,N
1522422035.3,286046998.1,N
1522422055.1,286047001.2,N
1522422075.8,286047000.9,N
1522422095.7,286047002.8,N
1522422115.5,286047000.2,N
1522422135.4,286046999.7,N
1522422155.2,286047002.7,N
1522422175.0,286047002.4,N
1522422175.9,286047002.4,N
1522422195.8,286047002.0,N
1522422215.6,286047004.4,Y
1522422235.5,286047000.1,P
1522422255.3,286047000.3,N
1522422275.1,286047000.0,N
1522422295.9,286047001.0,Y
1522422315.7,286047000.4,P
1522422335.6,286047000.8,P
1522422355.4,286046998.1,P
1522422375.2,286046999.2,N
1522422395.1,286046999.0,N
1522422396.0,286046999.0,N
1522422415.8,286046998.8,N
1522422435.7,286046998.8,N
1522422455.5,286046998.6,N
1522422475.3,286047001.0,N
1522422495.2,286047000.8,N
1522422515.0,286046998.6,N
1522422515.9,286046998.6,N
1522422535.7,286046998.2,N
1522422555.6,286046998.8,N
1522422575.4,286046999.4,N
1522422595.3,286046998.6,N
1522422615.1,286047000.1,N
1522422616.0,286047000.1,N
1522422635.8,286046998.1,N
1522422655.7,286046998.4,N
1522422675.5,286046998.2,N
1522422695.3,286046998.5,N
1522422715.2,286046998.7,N
1522422735.0,286046998.4,N
1522422735.9,286046998.4,N
1522422755.8,286046996.8,Y
1522422775.6,286046998.4,P
1522422795.4,286047000.7,N
1522422815.3,286046998.7,N
1522422835.1,286046998.8,N
1522422855.8,286046998.9,N
1522422875.7,286046998.7,N
1522422895.5,286046998.6,N
1522422915.4,286047000.9,N
1522422935.2,286046999.4,N
1522422955.0,286046999.3,N
1522422955.9,286046999.3,N
1522422975.8,286046995.1,Y
1522422995.6,286046997.0,P
1522423015.5,286046997.1,N
1522423035.3,286046999.6,N
1522423055.1,286046999.5,N
1522423075.9,286046999.3,N
1522423095.7,286046999.4,N
1522423115.5,286046997.2,N
1522423135.4,286046996.0,Y
1522423155.2,286046997.6,P
1522423175.1,286046995.0,P
1522423176.0,286046995.0,P
1522423195.8,286046993.5,Y
1522423215.6,286046997.3,P
1522423235.5,286046996.9,P
1522423255.3,286046996.9,P
1522423275.2,286046999.3,N
1522423295.9,286046997.4,N
1522423315.7,286046996.7,Y
1522423335.6,286047001.1,P
1522423355.4,286047000.5,N
1522423375.2,286046998.6,N
1522423395.1,286046999.0,N
1522423396.0,286046999.0,N
1522423415.8,286046996.7,N
1522423435.7,286046997.4,N
1522423455.5,286046996.8,N
1522423475.3,286046997.1,N
1522423495.2,286046997.0,N
1522423515.0,286046996.5,N
1522423515.9,286046996.5,N
1522423535.8,286046999.0,N
1522423555.6,286046999.3,N
1522423575.4,286046997.1,N
1522423595.3,286046998.0,N
1522423615.1,286046997.4,N
1522423635.9,286046995.1,Y
1522423655.7,286046996.6,P
1522423675.5,286046999.0,N
1522423695.4,286046999.2,N
1522423715.2,286046996.5,Y
1522423735.1,286047000.0,P
1522423736.0,286047000.0,N
1522423755.8,286047000.5,N
1522423775.6,286046998.4,N
1522423795.5,286046997.0,Y
1522423815.3,286046997.7,P
1522423835.1,286046995.6,P
1522423855.9,286046995.2,P
1522423875.7,286046997.8,N
1522423895.6,286046996.8,N
1522423915.4,286046995.0,Y
1522423935.2,286046998.5,P
1522423955.1,286047000.8,N
1522423956.0,286047000.8,N
1522423975.8,286046998.8,N
1522423995.7,286046999.6,N
1522424015.5,286046998.3,N
1522424035.3,286046999.8,N
1522424055.2,286047002.8,N
1522424075.0,286047001.9,N
1522424075.9,286047001.9,N
1522424095.7,286047003.9,N
1522424115.6,286047001.4,N
1522424135.4,286047000.4,N
1522424155.3,286047002.6,N
1522424175.1,286047002.1,N
1522424176.0,286047002.1,N
1522424195.8,286047001.5,N
1522424215.7,286047003.7,N
1522424235.5,286047003.9,N
1522424255.3,286047001.8,N
1522424275.2,286047002.8,N
1522424295.0,286047002.1,N
1522424295.9,286047002.1,N
1522424315.8,286046999.7,N
1522424335.6,286047000.8,N
1522424355.4,286046999.0,N
1522424375.3,286046996.7,N
1522424395.1,286046999.1,N
1522424415.9,286046999.3,N
1522424435.7,286046999.0,N
1522424455.5,286046999.0,N
1522424475.4,286046997.1,N
1522424495.2,286046997.7,N
1522424515.0,286046996.6,N
1522424515.9,286046996.6,N
1522424535.8,286046998.9,N
1522424555.6,286047000.8,N
1522424575.5,286046999.0,N
1522424595.3,286047001.2,N
1522424615.1,286047000.9,N
1522424635.9,286047001.1,N
1522424655.7,286047001.0,N
1522424675.6,286046999.0,N
1522424695.4,286046997.2,N
1522424715.2,286046999.2,N
1522424735.1,286047000.0,N
1522424736.0,286047000.0,N
1522424755.8,286047000.6,N
1522424775.6,286047000.3,N
1522424795.5,286047002.8,N
1522424815.3,286047000.6,N
1522424835.2,286047000.3,N
1522424855.9,286046998.3,N
1522424875.7,286046996.8,N
1522424895.6,286046996.8,N
1522424915.4,286046996.6,N
1522424935.2,286046999.1,N
1522424955.1,286046996.5,N
1522424956.0,286046996.5,N
1522424975.8,286046998.7,N
1522424995.7,286046998.1,N
1522425015.5,286047000.4,N
1522425035.3,286047000.3,N
1522425055.2,286047000.8,N
1522425075.0,286046998.5,N
1522425075.9,286046998.5,N
1522425095.7,286046998.2,N
1522425115.6,286047000.6,N
1522425135.4,286046998.9,N
1522425155.3,286046999.1,N
1522425175.1,286047001.2,N
1522425176.0,286047001.2,N
1522425195.8,286046998.1,N
1522425215.7,286047000.1,N
1522425235.5,286047000.1,N
1522425255.3,286047001.2,N
1522425275.2,286046999.7,N
1522425295.0,286047001.6,N
1522425295.9,286047001.6,N
1522425315.8,286047001.5,N
1522425335.6,286047011.9,Y
1522425355.4,286047001.7,P
1522425375.3,286047001.5,N
1522425395.1,286047001.5,N
1522425415.9,286047003.6,Y
1522425435.7,286047001.3,P
1522425455.5,286047001.4,P
1522425475.4,286047004.2,P
1522425495.2,286047003.3,N
1522425515.0,286047007.3,Y
1522425516.0,286047007.3,P
1522425535.8,286047003.9,N
1522425555.6,286047001.8,N
1522425575.5,286047001.5,N
1522425595.3,286047003.2,N
